Location: Claflin County Park
(44.8478°N, 87.5507°W)
Time: 02:41:42
(UTC+00:00)

USA 234 - Pass Details

Date: 20 March 2026
Orbit: 1102 x 1106 km, 123.0° (Epoch: 4 January)

Event Time Altitude Azimuth Distance (km) Brightness Sun altitude
Exits shadow 05:24:36 17° 300° (WNW) 2,454 5.3 -44.7°
Drops below altitude 10° 05:26:01 10° 304° (NW) 2,967 5.9 -44.8°
Sets 05:28:34 0° 308° (NW) 3,929 6.7 -44.8°
